Regional Weather Roundup
Issued by NWS

Home | Current Version | Previous Version | Text Only | Print | Product List | Glossary Off
Versions: 1 2 3 4 5 6 7 8 9 10 11 12 13 14 15 16 17 18 19 20 21 22 23 24 25 26 27 28 29 30 31 32 33 34 35 36 37 38 39 40 41 42 43 44 45 46 47 48 49 50

000
ASUS45 KABQ 020501
RWRNM
WEATHER ROUNDUP FOR NEW MEXICO
NATIONAL WEATHER SERVICE ALBUQUERQUE NM
1100 PM MDT MON SEP 01 2014

NOTE: "FAIR" MEANS FEW OR NO CLOUDS BELOW 12,000 FEET AGL WITH NO
       SIGNIFICANT WEATHER OR OBSTRUCTIONS TO VISION.

      THIS PRODUCT IS RELEASED AS TWO VERSIONS.  ONE VERSION NEAR
      THE TOP OF THE HOUR CONTAINING PRELIMINARY DATA FROM ALBUQUERQUE
      AND OTHER STATIONS.  A FINAL VERSION WITH ADDITIONAL DATA IS
      ISSUED ABOUT 10 MINUTES AFTER THE HOUR.

NMZ501-503-504-510>518-020600-
NORTHWEST PLATEAU/NORTHCENTRAL MOUNTAINS

CITY           SKY/WX    TMP DP  RH WIND       PRES   REMARKS
FARMINGTON     CLEAR     66  30  26 CALM      30.08R
LOS ALAMOS     CLEAR     71  29  20 W5        30.23S
SANTA FE       CLEAR     63  32  31 N8        30.14S
ANGEL FIRE     FAIR      48  31  50 CALM      30.33S

$$
NMZ402-403-502-505>509-020600-
WESTCENTRAL MOUNTAINS/SOUTHWEST MOUNTAINS

CITY           SKY/WX    TMP DP  RH WIND       PRES   REMARKS
GALLUP         CLEAR     59  28  30 E3        30.19R
SILVER CITY    CLEAR     68  30  24 N12       30.14R

$$
NMZ407-409-411-412-020600-
SOUTHERN DESERTS

CITY           SKY/WX    TMP DP  RH WIND       PRES   REMARKS
LORDSBURG      FAIR      73  36  25 CALM      30.03S
DEMING         CLEAR     75  34  22 NW9       30.02R
LAS CRUCES     CLEAR     80  32  17 W10       30.03R
HOLLOMAN AFB   CLEAR     76  37  23 S2        29.97R
ALAMOGORDO     CLEAR     77  32  19 CALM      29.99R
T OR C         CLEAR     77  35  21 N5        30.02R

$$
NMZ519>523-020600-
CENTRAL VALLEYS/CENTRAL HIGHLANDS

CITY           SKY/WX    TMP DP  RH WIND       PRES   REMARKS
ALBUQUERQUE    CLEAR     78  39  24 S3        30.08R
DOUBLE EAGLE   CLEAR     71  35  26 NW6       30.12S
CLINES CORNERS CLEAR     65  36  34 SW9       30.20R
BELEN          FAIR      69  37  30 SW7       30.05S
SOCORRO        FAIR      78  40  25 SW8       30.04R

$$
NMZ524>526-539-540-020600-
SOUTHCENTRAL MOUNTAINS

CITY           SKY/WX    TMP DP  RH WIND       PRES   REMARKS
RUIDOSO        NOT AVBL

$$
NMZ527>531-020600-
NORTHEAST HIGHLANDS/NORTHEAST PLAINS

CITY           SKY/WX    TMP DP  RH WIND       PRES   REMARKS
LAS VEGAS      CLEAR     65  31  28 VRB6      30.18S
RATON          CLEAR     63  35  35 N9        30.12R
CLAYTON        CLEAR     67  57  70 CALM      30.02S

$$
NMZ532>537-020600-
EASTCENTRAL PLAINS

CITY           SKY/WX    TMP DP  RH WIND       PRES   REMARKS
TUCUMCARI      CLEAR     78  37  22 VRB5      29.92S
CANNON AFB     CLEAR     77  43  29 NW7       29.97S
CLOVIS AIRPORT   N/A     72  46  40 CALM      30.00R

$$
NMZ028-029-538-020600-
SOUTHEAST PLAINS

CITY           SKY/WX    TMP DP  RH WIND       PRES   REMARKS
ROSWELL        CLEAR     76  42  29 SW7       29.91S
CARLSBAD       CLEAR     83  39  21 W10       29.89S
HOBBS          CLEAR     82  54  36 S12       29.96R


$$



USA.gov is the U.S. government's official web portal to all federal, state and local government web resources and services.